FW8857 Weather Reports


time (UTC)temp
C
wind
direction
speed
KPH
gust
KPH
rain 1hr
cm
rain 24hr
cm
rain mn
cm
humidity
%
barometer
mb
20260503195646 27 26 6.4 14.5 0.00 0.00 0.00 44 1010.0
20260503195144 27 329 8.0 14.5 0.00 0.00 0.00 46 1010.0
20260503194644 27 349 8.0 14.5 0.00 0.00 0.00 46 1010.1
20260503194143 27 323 6.4 12.9 0.00 0.00 0.00 46 1010.1
20260503193644 26 57 6.4 14.5 0.00 0.00 0.00 46 1010.2
20260503193408 26 263 6.4 14.5 0.00 0.00 0.00 49 1010.3
20260503192640 26 28 6.4 12.9 0.00 0.00 0.00 49 1010.4
20260503192630 26 299 4.8 11.3 0.00 0.00 0.00 48 1010.4
20260503191641 25 37 4.8 11.3 0.00 0.00 0.00 50 1010.4
20260503191140 25 315 6.4 12.9 0.00 0.00 0.00 51 1010.5
20260503190641 25 5 6.4 12.9 0.00 0.00 0.00 52 1010.6
20260503190140 25 302 6.4 12.9 0.00 0.00 0.00 52 1010.6
20260503185641 25 3 6.4 11.3 0.00 0.00 0.00 52 1010.7
20260503185141 24 324 4.8 11.3 0.00 0.00 0.00 53 1010.8
20260503184641 24 292 6.4 11.3 0.00 0.00 0.00 53 1010.8
20260503184141 23 10 6.4 11.3 0.00 0.00 0.00 54 1010.9
20260503183906 23 345 6.4 11.3 0.00 0.00 0.00 53 1010.9
20260503183141 23 40 4.8 11.3 0.00 0.00 0.00 54 1011.0
20260503182903 23 316 6.4 14.5 0.00 0.00 0.00 54 1011.1
20260503182135 23 323 6.4 14.5 0.00 0.00 0.00 54 1011.1
20260503181636 22 350 6.4 12.9 0.00 0.00 0.00 53 1011.1
20260503181136 22 329 6.4 14.5 0.00 0.00 0.00 55 1011.2
20260503180636 22 334 6.4 14.5 0.00 0.00 0.00 57 1011.3
20260503180136 22 325 6.4 14.5 0.00 0.00 0.00 60 1011.3
20260503175907 21 287 6.4 14.5 0.00 0.00 0.00 60 1011.4
20260503175136 21 46 8.0 14.5 0.00 0.00 0.00 61 1011.4
20260503175128 21 331 6.4 14.5 0.00 0.00 0.00 60 1011.4
20260503174136 21 350 6.4 12.9 0.00 0.00 0.00 62 1011.5
20260503173636 21 311 6.4 11.3 0.00 0.00 0.00 64 1011.5
20260503173402 20 290 6.4 11.3 0.00 0.00 0.00 65 1011.6
20260503172636 20 345 6.4 12.9 0.00 0.00 0.00 67 1011.6
20260503172137 20 323 6.4 12.9 0.00 0.00 0.00 68 1011.7
20260503171637 20 339 6.4 12.9 0.00 0.00 0.00 68 1011.7
20260503171134 19 308 8.0 16.1 0.00 0.00 0.00 69 1011.7
20260503170634 19 331 8.0 16.1 0.00 0.00 0.00 69 1011.7
20260503170359 19 355 8.0 19.3 0.00 0.00 0.00 70 1011.8
20260503160128 18 30 1.6 4.8 0.00 0.00 0.00 69 1012.1
20260503150852 16 1 3.2 4.8 0.00 0.00 0.00 82 1012.2
20260503150129 15 17 3.2 3.2 0.00 0.00 0.00 84 1012.2
20260503140128 12 330 0.0 1.6 0.00 0.00 0.00 98 1012.0
20260503131352 11 283 1.6 4.8 0.00 0.00 0.00 99 1011.7
20260503130622 11 0 1.6 4.8 0.00 0.00 0.00 99 1011.7
20260503130353 11 251 1.6 4.8 0.00 0.00 0.00 99 1011.6
20260503120118 11 0 0.0 1.6 0.00 0.00 0.00 99 1011.8
20260503110616 11 183 0.0 3.2 0.00 0.00 0.00 98 1011.9
20260503110115 11 283 0.0 3.2 0.00 0.00 0.00 98 1012.0
20260503100110 12 344 0.0 3.2 0.00 0.00 0.00 96 1012.0
20260503090106 13 207 3.2 4.8 0.00 0.00 0.00 93 1012.3
20260503081606 13 140 0.0 3.2 0.00 0.05 0.00 92 1012.3
20260503081107 13 151 0.0 3.2 0.00 0.05 0.00 91 1012.2
20260503080607 14 0 0.0 1.6 0.00 0.05 0.00 90 1012.2
20260503080106 14 310 1.6 3.2 0.00 0.05 0.00 89 1012.2
20260503072607 14 0 0.0 1.6 0.00 0.05 0.00 90 1012.3
20260503072332 14 0 0.0 3.2 0.00 0.05 0.00 90 1012.3
20260503071606 14 291 0.0 3.2 0.00 0.05 0.00 89 1012.3
20260503071337 14 278 0.0 3.2 0.00 0.05 0.00 89 1012.4
20260503070607 14 306 0.0 3.2 0.00 0.05 0.00 89 1012.4
20260503070106 15 0 1.6 3.2 0.00 0.05 0.00 88 1012.3
20260503055059 16 190 3.2 4.8 0.00 0.05 0.05 84 1012.2
20260503054558 16 0 3.2 4.8 0.00 0.05 0.05 83 1012.0
20260503054100 16 270 1.6 4.8 0.00 0.05 0.05 82 1012.0
20260503053559 16 279 1.6 4.8 0.00 0.05 0.05 81 1012.0
20260503053100 16 235 1.6 4.8 0.00 0.05 0.05 81 1011.9
20260503052600 16 323 1.6 4.8 0.00 0.05 0.05 81 1012.0
20260503052100 16 0 1.6 4.8 0.00 0.05 0.05 80 1012.1
20260503051556 16 310 3.2 4.8 0.00 0.05 0.05 80 1012.1
20260503051057 16 309 3.2 4.8 0.00 0.05 0.05 80 1012.2
20260503050556 16 293 3.2 4.8 0.00 0.05 0.05 79 1012.2
20260503050057 17 349 1.6 4.8 0.00 0.05 0.05 79 1012.3
20260503045557 17 273 1.6 3.2 0.00 0.05 0.05 79 1012.4
20260503045058 17 197 1.6 3.2 0.00 0.05 0.05 79 1012.5
20260503044557 17 269 1.6 3.2 0.00 0.05 0.05 78 1012.4
20260503044544 17 323 0.0 3.2 0.00 0.05 0.05 77 1012.4
20260503043557 17 0 0.0 3.2 0.00 0.05 0.05 77 1012.5
20260503043550 17 0 0.0 3.2 0.00 0.05 0.05 76 1012.6
20260503042555 17 288 1.6 3.2 0.00 0.05 0.05 76 1012.5
20260503042055 17 90 1.6 3.2 0.00 0.05 0.05 76 1012.4
20260503041555 17 49 1.6 3.2 0.00 0.05 0.05 75 1012.4
20260503041055 17 42 0.0 3.2 0.00 0.05 0.05 75 1012.3
20260503040555 17 31 0.0 3.2 0.00 0.05 0.05 74 1012.3
20260503040054 17 0 0.0 3.2 0.00 0.05 0.05 74 1012.3
20260503035555 18 0 0.0 3.2 0.00 0.05 0.05 73 1012.3
20260503035055 18 11 1.6 4.8 0.00 0.05 0.05 73 1012.2
20260503034555 18 136 1.6 8.0 0.00 0.05 0.05 73 1012.3
20260503034055 18 95 3.2 8.0 0.00 0.05 0.05 72 1012.3
20260503033825 18 45 1.6 3.2 0.00 0.05 0.05 72 1012.3
20260503033054 18 85 1.6 4.8 0.00 0.05 0.05 72 1012.1
20260503032555 18 15 3.2 6.4 0.00 0.05 0.05 72 1012.1
20260503032055 18 35 1.6 6.4 0.00 0.05 0.05 72 1012.2
20260503031556 18 142 3.2 9.7 0.00 0.05 0.05 72 1012.1
20260503031055 18 216 4.8 12.9 0.00 0.05 0.05 71 1011.9
20260503030555 18 203 4.8 12.9 0.00 0.05 0.05 71 1011.9
20260503030052 18 213 4.8 12.9 0.00 0.05 0.05 71 1011.9
20260503025553 18 252 6.4 16.1 0.00 0.05 0.05 71 1011.8
20260503025053 18 254 8.0 16.1 0.00 0.05 0.05 70 1011.9
20260503024553 18 266 9.7 17.7 0.00 0.05 0.05 70 1011.9
20260503024053 19 211 9.7 22.5 0.00 0.05 0.05 70 1011.7
20260503023552 19 207 9.7 22.5 0.00 0.05 0.05 69 1011.7
20260503023053 20 223 9.7 20.9 0.00 0.05 0.05 68 1011.7
20260503022553 21 209 9.7 20.9 0.00 0.05 0.05 66 1011.7
20260503022053 21 216 8.0 19.3 0.00 0.05 0.05 64 1011.6
20260503021553 22 165 8.0 17.7 0.00 0.05 0.05 61 1011.7
20260503021053 22 221 6.4 16.1 0.00 0.05 0.05 60 1011.6
20260503020553 22 291 4.8 9.7 0.00 0.05 0.05 60 1011.4
20260503020054 22 216 3.2 8.0 0.00 0.05 0.05 60 1011.1
20260503015821 22 184 3.2 8.0 0.00 0.05 0.05 60 1011.1
20260503015319 22 289 3.2 8.0 0.00 0.05 0.05 60 1011.0
20260503014551 22 212 1.6 8.0 0.00 0.05 0.05 59 1011.0
20260503014051 22 299 1.6 3.2 0.00 0.05 0.05 59 1010.9
20260503013551 22 130 1.6 6.4 0.00 0.05 0.05 59 1011.0
20260503013051 22 194 3.2 6.4 0.00 0.05 0.05 59 1011.0
20260503012552 22 210 3.2 6.4 0.00 0.05 0.05 59 1011.0
20260503012254 22 203 3.2 6.4 0.00 0.05 0.05 59 1010.9
20260503011051 22 288 1.6 4.8 0.00 0.05 0.05 59 1010.9
20260503010551 22 0 1.6 4.8 0.00 0.05 0.05 58 1010.9
20260503010051 22 0 3.2 8.0 0.00 0.05 0.05 58 1010.9
20260503005552 22 274 3.2 8.0 0.00 0.05 0.05 58 1010.9
20260503005051 22 277 3.2 8.0 0.00 0.05 0.05 57 1011.0
20260503004549 22 313 1.6 8.0 0.00 0.05 0.05 57 1011.0
20260503004049 22 11 3.2 9.7 0.00 0.05 0.05 56 1011.0
20260503003549 22 0 4.8 9.7 0.00 0.05 0.05 57 1011.0
20260503003046 22 301 3.2 9.7 0.00 0.05 0.05 56 1011.0
20260503002809 22 349 3.2 11.3 0.00 0.05 0.05 56 1011.0
20260503002049 22 0 4.8 11.3 0.00 0.05 0.05 57 1011.0
20260503001547 22 295 6.4 11.3 0.00 0.05 0.05 57 1011.0
20260503001047 22 307 6.4 11.3 0.00 0.05 0.05 57 1011.1
20260503000547 22 281 3.2 9.7 0.00 0.05 0.05 57 1011.1
20260503000050 22 284 3.2 12.9 0.00 0.05 0.05 56 1011.1
20260502235547 21 339 6.4 14.5 0.00 0.05 0.05 59 1011.2
20260502235046 21 245 6.4 14.5 0.00 0.05 0.05 58 1011.2
20260502234547 21 264 6.4 12.9 0.00 0.05 0.05 58 1011.2
20260502234530 21 285 4.8 14.5 0.00 0.05 0.05 57 1011.3
20260502233543 21 290 4.8 14.5 0.00 0.05 0.05 57 1011.4
20260502233041 21 262 6.4 16.1 0.00 0.05 0.05 58 1011.5
20260502232537 21 345 6.4 16.1 0.00 0.05 0.05 59 1011.5
20260502232037 21 276 4.8 9.7 0.00 0.05 0.05 59 1011.5
20260502231538 21 300 4.8 11.3 0.00 0.05 0.05 58 1011.6
20260502231038 21 20 6.4 14.5 0.00 0.05 0.05 59 1011.6
20260502230535 21 318 4.8 14.5 0.00 0.05 0.05 60 1011.7
20260502230034 20 215 4.8 12.9 0.00 0.05 0.05 60 1011.8
20260502225535 20 295 4.8 12.9 0.00 0.05 0.05 61 1011.8
20260502225035 20 294 4.8 11.3 0.00 0.05 0.05 60 1012.0
20260502224535 20 326 6.4 14.5 0.00 0.05 0.05 61 1012.0
20260502224035 20 286 4.8 14.5 0.00 0.05 0.05 60 1012.2
20260502223536 20 272 4.8 11.3 0.00 0.05 0.05 60 1012.2
20260502223035 20 279 6.4 11.3 0.00 0.05 0.05 61 1012.3
20260502222758 20 340 6.4 14.5 0.00 0.05 0.05 61 1012.4
20260502222035 19 2 6.4 14.5 0.00 0.05 0.05 63 1012.5
20260502221533 19 334 6.4 14.5 0.00 0.05 0.05 62 1012.6
20260502221033 19 298 6.4 14.5 0.00 0.05 0.05 63 1012.7
20260502220533 19 290 6.4 12.9 0.00 0.05 0.05 62 1012.8
20260502220256 18 359 6.4 12.9 0.00 0.05 0.05 64 1012.9
20260502220019 18 323 6.4 12.9 0.00 0.05 0.05 64 1012.9
20260502215033 18 265 6.4 12.9 0.00 0.05 0.05 65 1012.9
20260502214534 18 8 6.4 12.9 0.00 0.05 0.05 65 1013.0
20260502214033 18 343 4.8 12.9 0.00 0.05 0.05 66 1013.1
20260502213759 18 301 3.2 14.5 0.00 0.05 0.05 65 1013.2
20260502213034 18 317 4.8 14.5 0.00 0.05 0.05 65 1013.2
20260502212534 18 13 6.4 12.9 0.00 0.05 0.05 65 1013.4
20260502212031 18 288 6.4 14.5 0.00 0.05 0.05 66 1013.4
20260502211530 18 274 6.4 14.5 0.00 0.05 0.05 66 1013.4
20260502211032 18 18 8.0 14.5 0.00 0.05 0.05 66 1013.5
20260502210531 18 9 8.0 12.9 0.00 0.05 0.05 66 1013.5
20260502210031 18 23 6.4 14.5 0.00 0.05 0.05 67 1013.6
20260502205753 18 355 3.2 14.5 0.00 0.05 0.05 65 1013.8
20260502205030 17 267 3.2 11.3 0.00 0.05 0.05 67 1014.0
20260502204531 17 92 6.4 14.5 0.00 0.05 0.05 69 1014.1
20260502204259 16 331 8.0 14.5 0.00 0.05 0.05 69 1014.1
20260502203530 16 348 8.0 14.5 0.00 0.05 0.05 70 1014.2
20260502203031 16 355 9.7 16.1 0.00 0.05 0.05 70 1014.1
20260502202755 16 339 8.0 16.1 0.00 0.05 0.05 70 1014.1
20260502202031 17 342 6.4 12.9 0.00 0.05 0.05 69 1014.2
20260502201531 16 265 6.4 12.9 0.00 0.05 0.05 70 1014.2
20260502201032 16 268 6.4 11.3 0.00 0.05 0.05 70 1014.4
20260502200529 16 306 6.4 12.9 0.00 0.05 0.05 70 1014.4
20260502200028 16 303 8.0 17.7 0.00 0.05 0.05 71 1014.4